User: anonymous   Login
Location: Unspecified
(43.3830°N, 0.0000°E)
Time: 21:51:10
(UTC+00:00)
Language:

Transit 2A - Orbit

View from above orbital plane
View from above orbital plane
View from above satellite
View from above satellite

Ground track
Ground track

The orbit data is extracted from the following two-line orbital elements,

1    45U 60007A   19167.77969659 -.00000041  00000-0  16856-4 0  9990
2    45  66.6948 267.1413 0260921 223.7452 134.2714 14.33640771 70149
Epoch (UTC): 16 June 2019 18:42:45
Eccentricity: 0.0260921
inclination: 66.6948°
perigee height: 593 km
apogee height: 966 km
right ascension of ascending node: 267.1413°
argument of perigee: 223.7452°
revolutions per day: 14.33640771
mean anomaly at epoch: 134.2714°
orbit number at epoch: 7014

The dashed part of the orbit path shows where the satellite is in the earth's shadow,  

DLR